Iwojima, Japan

1:21 PM JST on April 30, 2017 (GMT +0900)
Iwojima Aero

Weather History for RJAW - March, 2013

Change the Weather History Date:

Monday, March 25, 2013

  Actual Average Record
Temperature  
Mean Temperature 74 °F -  
Max Temperature 78 °F 74 °F 78 °F (1999)
Min Temperature 71 °F 68 °F 62 °F (1997)
Cooling Degree Days 10    
Growing Degree Days 24 (Base 50)    
Moisture  
Dew Point 71 °F    
Average Humidity 87    
Maximum Humidity 94    
Minimum Humidity 74    
Precipitation  
Precipitation 0.00 in - - ()
Sea Level Pressure  
Sea Level Pressure 29.87 in    
Wind  
Wind Speed 9 mph ()    
Max Wind Speed 21 mph    
Max Gust Speed 33 mph    
Visibility 4.7 miles    
Events Rain    
Averages and records for this station are not official NWS values.
T = Trace of Precipitation, MM = Missing Value Source: Averaged Metar Reports

Daily Weather History Graph

Daily Weather History Graph

Search for Another Location

Airport or City:

Trip Planner

Search our weather history database for the weather conditions in past years. The results will help you decide how hot, cold, wet, or windy it might be!

Date:

Astronomy

Mar. 25, 2013 Rise Set
Actual Time 6:33 AM ChST 6:47 PM ChST
Civil Twilight 6:11 AM ChST 7:10 PM ChST
Nautical Twilight 5:44 AM ChST 7:37 PM ChST
Astronomical Twilight 5:17 AM ChST 8:04 PM ChST
Moon 4:48 PM ChST (3/25) 4:43 AM ChST (3/25)
Length of Visible Light 12h 59m
Length of Day
12h 13m
Waxing Gibbous, 94% of the Moon is Illuminated
Mar 25
Waxing Gibbous
Mar 27
Full
Apr 3
Last Quarter
Apr 10
New
Apr 18
First Quarter

Hourly Weather History & Observations

Time (ChST) Temp. Dew Point Humidity Pressure Visibility Wind Dir Wind Speed Gust Speed Precip Events Conditions
1:00 AM 75.2 °F 68.0 °F 78% 29.92 in 6.2 mi South 8.1 mph - N/A   Mostly Cloudy
4:00 AM 71.6 °F 68.0 °F 88% 29.86 in 1.6 mi SW 10.4 mph - N/A Rain Light Rain Showers
6:00 AM 73.4 °F 69.8 °F 88% 29.86 in 6.2 mi West 3.5 mph - N/A   Mostly Cloudy
6:43 AM 73.4 °F 69.8 °F 88% 29.86 in 6.2 mi South 3.5 mph - N/A Rain Light Rain Showers
7:00 AM 73.4 °F 69.8 °F 88% 29.86 in 6.2 mi Variable 2.3 mph - N/A Rain Light Rain Showers
7:20 AM 73.4 °F 69.8 °F 88% 29.86 in 6.2 mi South 3.5 mph - N/A   Mostly Cloudy
7:37 AM 73.4 °F 69.8 °F 88% 29.89 in - SW 4.6 mph - N/A Rain Light Rain Showers
8:00 AM 73.4 °F 71.6 °F 94% 29.89 in 2.2 mi WSW 6.9 mph - N/A Rain Light Rain Showers
9:00 AM 73.4 °F 71.6 °F 94% 29.89 in 0.6 mi SSW 2.3 mph - N/A Rain Light Rain Showers
9:22 AM 75.2 °F 71.6 °F 89% 29.89 in 0.9 mi SSW 8.1 mph - N/A Rain Light Rain Showers
9:49 AM 75.2 °F 73.4 °F 94% 29.89 in - SSW 11.5 mph - N/A Rain Light Rain Showers
10:00 AM 75.2 °F 73.4 °F 94% 29.89 in 2.5 mi SSW 11.5 mph - N/A Rain Light Rain Showers
11:00 AM 75.2 °F 71.6 °F 89% 29.89 in 5.0 mi WSW 18.4 mph 29.9 mph N/A   Mostly Cloudy
11:15 AM 75.2 °F 71.6 °F 89% 29.86 in - SW 15.0 mph - N/A Rain Light Rain Showers
11:25 AM 73.4 °F 71.6 °F 94% 29.89 in 1.9 mi SW 19.6 mph 33.4 mph N/A Rain Rain Showers
12:00 PM 73.4 °F 71.6 °F 94% 29.86 in 3.1 mi SW 20.7 mph 33.4 mph N/A Rain Light Rain Showers
1:00 PM 75.2 °F 71.6 °F 89% 29.86 in 5.0 mi WNW 16.1 mph - N/A   Mostly Cloudy
1:07 PM 75.2 °F 71.6 °F 89% 29.86 in 5.0 mi West 18.4 mph - N/A   Mostly Cloudy
1:40 PM 73.4 °F 69.8 °F 88% 29.86 in 6.2 mi WNW 17.3 mph - N/A   Mostly Cloudy
2:00 PM 73.4 °F 69.8 °F 88% 29.86 in 6.2 mi WNW 17.3 mph - N/A   Mostly Cloudy
3:00 PM 77.0 °F 69.8 °F 78% 29.86 in 6.2 mi West 17.3 mph - N/A   Mostly Cloudy
4:00 PM 77.0 °F 69.8 °F 78% 29.86 in 6.2 mi West 18.4 mph - N/A   Mostly Cloudy
5:00 PM 78.8 °F 69.8 °F 74% 29.86 in 6.2 mi West 15.0 mph - N/A   Mostly Cloudy
6:00 PM 77.0 °F 69.8 °F 78% 29.86 in 6.2 mi West 13.8 mph - N/A   Mostly Cloudy
7:00 PM 75.2 °F 69.8 °F 83% 29.86 in 6.2 mi WSW 11.5 mph - N/A   Mostly Cloudy
10:00 PM 75.2 °F 69.8 °F 83% 29.92 in 6.2 mi West 12.7 mph - N/A   Mostly Cloudy